Simultaneous Nadir Overpasses (SNOs) Predictions

Prediction of SNOs between METOP-B and NOAA-19 Satellite Orbit:

Table of predicted SNOs for the next 14.0 days since TLE Epoch: 6/18/2021
Index Date (METOP-B) Time (METOP-B) Lat,Lon (METOP-B) SZA (METOP-B ) Date (NOAA-19) Time (NOAA-19) Lat,Lon (NOAA-19) SZA (NOAA-19 ) Distance(km) Time Diff (sec)
1 06/22/2021 09:15:24 80.55, 70.10 58.30 06/22/2021 09:14:24 80.54, 70.13 58.27 1.52 60
2 06/22/2021 10:06:06 -80.54,-122.72 121.72 06/22/2021 10:05:22 -80.55,-122.88 121.74 3.18 44
3 06/22/2021 10:56:46 80.54, 44.63 58.28 06/22/2021 10:56:24 80.53, 44.74 58.28 2.25 22
4 06/22/2021 11:47:28 -80.53,-148.19 121.74 06/22/2021 11:47:22 -80.54,-148.27 121.74 2.08 6
5 06/22/2021 12:38:07 80.53, 19.16 58.27 06/22/2021 12:38:24 80.54, 19.00 58.27 3.13 17
6 06/22/2021 13:28:49 -80.52,-173.65 121.76 06/22/2021 13:29:21 -80.54,-173.65 121.73 1.92 32
7 06/22/2021 14:19:29 80.52, -6.31 58.25 06/22/2021 14:20:24 80.54, -6.39 58.27 2.24 55



Historial Predications of SNOs between METOP-B and NOAA-19
